This is the latest recevied weather packets stored in our database for station/object K4CRS-13. If no packets are shown the sender has not sent any weather packets the latest 10 day(s).
| Time | Temp. | Humidity | Pressure | Rain* | Wind** | Luminosity | Snow |
|---|---|---|---|---|---|---|---|
| 1777551380 | 11.67° C | 91% | 1049.6 hPa | 0 mm | - | 84 W/m² | - |
| 1777551077 | 11.67° C | 91% | 1049.5 hPa | 0 mm | - | 58 W/m² | - |
| 1777550774 | 11.67° C | 91% | 1049.3 hPa | 0 mm | - | 72 W/m² | - |
| 1777550470 | 11.67° C | 92% | 1049.3 hPa | 0 mm | - | 63 W/m² | - |
| 1777550166 | 11.67° C | 93% | 1049.3 hPa | 0 mm | - | 51 W/m² | - |
| 1777549863 | 11.67° C | 93% | 1049.2 hPa | 0 mm | - | 48 W/m² | - |
| 1777549559 | 11.67° C | 93% | 1049.3 hPa | 0 mm | - | 45 W/m² | - |
| 1777549255 | 11.67° C | 94% | 1049.4 hPa | 0 mm | - | 50 W/m² | - |
| 1777548952 | 11.67° C | 94% | 1049.2 hPa | 0 mm | - | 36 W/m² | - |
| 1777548649 | 12.22° C | 94% | 1049.3 hPa | 0 mm | - | 33 W/m² | - |
| 1777548345 | 12.22° C | 95% | 1049.1 hPa | 0 mm | - | 21 W/m² | - |
| 1777548043 | 12.22° C | 95% | 1049.4 hPa | 0 mm | - | 15 W/m² | - |
| 1777547738 | 12.22° C | 95% | 1048.9 hPa | 0 mm | - | 10 W/m² | - |
| 1777547435 | 12.22° C | 95% | 1049 hPa | 0 mm | - | 6 W/m² | - |
| 1777547132 | 12.22° C | 96% | 1049.1 hPa | 0 mm | - | 3 W/m² | - |
| 1777546830 | 12.22° C | 96% | 1049 hPa | 0 mm | - | 2 W/m² | - |
| 1777546526 | 12.78° C | 96% | 1048.8 hPa | 0 mm | - | 0 W/m² | - |
| 1777546223 | 12.78° C | 97% | 1049.1 hPa | 0 mm | - | 0 W/m² | - |
| 1777545920 | 12.78° C | 97% | 1049.1 hPa | 0 mm | - | 0 W/m² | - |
| 1777545616 | 12.78° C | 97% | 1048.7 hPa | 0 mm | - | 0 W/m² | - |
| 1777545313 | 12.78° C | 98% | 1048.6 hPa | 0 mm | - | 0 W/m² | - |
| 1777545011 | 12.78° C | 98% | 1048.6 hPa | 0 mm | - | 0 W/m² | - |
| 1777544708 | 12.78° C | 98% | 1048.6 hPa | 0 mm | - | 0 W/m² | - |
| 1777544402 | 12.78° C | 98% | 1048.6 hPa | 0 mm | - | 0 W/m² | - |
| 1777544099 | 12.78° C | 98% | 1048.3 hPa | 0 mm | - | 0 W/m² | - |
* Rain latest hour (hover to see other rain measurements)
** Current wind speed in m/s (hover to see current wind gust speed)